Location: Holyhead Bay
(53.3667°N, 4.6667°W)
Time: 18:54:01
(UTC+00:00)

Cosmos 2285 Rocket - Pass Details

Date: 24 November 2020
Orbit: 971 x 998 km, 74.0° (Epoch: 17 January)

Event Time Altitude Azimuth Distance (km) Brightness Sun altitude
Rises 17:37:29 0° 333° (NNW) 3,728 7.2 -12.5°
Reaches altitude 10° 17:40:09 10° 339° (NNW) 2,773 6.4 -12.9°
Maximum altitude 17:46:25 52° 55° (NE) 1,223 4.2 -13.7°
Drops below altitude 10° 17:52:37 10° 131° (SE) 2,741 6.0 -14.6°
Sets 17:55:14 0° 137° (SE) 3,681 6.7 -15.0°
